sat.trackr.live / text

‹ back to catalog

UNKNOWN

NORAD 89184

UNKNOWN UNKNOWN UNKNOWN

§ Identity

Operator
Country
Launch date
Launch site
Launch vehicle
Mass (kg)
RCS (m²)

External: N2YO · Heavens-Above

§ Orbital elements

Epoch: 2026-09-18T12:05:58.481376Z

Period
96.32 min
Inclination
98.3656°
Eccentricity
0.0006733
Mean motion
14.95023677 rev/d
Perigee alt
577.6 km
Apogee alt
587.0 km
Semi-major
6,960.4 km
B*
1.7307e-3
RAAN
147.2856°
Arg perigee
326.0206°
Mean anomaly
34.0580°
Rev number
53,379

§ Raw data

UNKNOWN1 89184U          26261.50414909  .00018922  00000+0  17307-2 0  99902 89184  98.3656 147.2856 0006733 326.0206  34.0580 14.95023677533791

JSON: /api/v1/satellites/89184 · /tle

For live sub-satellite position, see the globe view (requires WebGL).

§ Visibility from observer

Set your observer location to see the next 7 days of passes ≥ 10°. The values pass through the URL so the page stays shareable.

No JS? Fill the form by hand. The geolocation button needs JavaScript.